This is the latest recevied weather packets stored in our database for station/object 9W2CHF-4. If no packets are shown the sender has not sent any weather packets the latest 10 day(s).
| Time | Temp. | Humidity | Pressure | Rain* | Wind** | Luminosity | Snow |
|---|---|---|---|---|---|---|---|
| 1777914514 | 32.22° C | 79% | 1011.2 hPa | - | - | - | - |
| 1777913613 | 32.22° C | 79% | 1011.4 hPa | - | - | - | - |
| 1777912713 | 32.22° C | 81% | 1011.5 hPa | - | - | - | - |
| 1777911813 | 32.22° C | 81% | 1011.5 hPa | - | - | - | - |
| 1777910913 | 32.78° C | 80% | 1011.5 hPa | - | - | - | - |
| 1777910013 | 32.78° C | 82% | 1011.5 hPa | - | - | - | - |
| 1777909113 | 31.67° C | 88% | 1011.5 hPa | - | - | - | - |
| 1777908213 | 32.22° C | 86% | 1011.5 hPa | - | - | - | - |
| 1777907312 | 32.22° C | 86% | 1011.3 hPa | - | - | - | - |
| 1777906412 | 32.22° C | 84% | 1011.1 hPa | - | - | - | - |
| 1777905512 | 31.67° C | 84% | 1011 hPa | - | - | - | - |
| 1777904611 | 32.22° C | 80% | 1011 hPa | - | - | - | - |
| 1777903711 | 32.78° C | 79% | 1011.1 hPa | - | - | - | - |
| 1777902811 | 32.78° C | 79% | 1010.9 hPa | - | - | - | - |
| 1777901911 | 32.22° C | 83% | 1010.7 hPa | - | - | - | - |
| 1777901011 | 32.22° C | 80% | 1010.3 hPa | - | - | - | - |
| 1777900110 | 32.22° C | 84% | 1010.2 hPa | - | - | - | - |
| 1777899210 | 32.78° C | 73% | 1009.9 hPa | - | - | - | - |
| 1777898310 | 32.78° C | 75% | 1009.7 hPa | - | - | - | - |
| 1777897410 | 32.22° C | 78% | 1009.4 hPa | - | - | - | - |
| 1777896510 | 31.67° C | 81% | 1009.4 hPa | - | - | - | - |
| 1777895610 | 32.22° C | 80% | 1009.3 hPa | - | - | - | - |
| 1777894710 | 32.22° C | 76% | 1009.2 hPa | - | - | - | - |
| 1777893810 | 32.22° C | 74% | 1009.1 hPa | - | - | - | - |
| 1777892910 | 32.22° C | 66% | 1008.7 hPa | - | - | - | - |
* Rain since midnight (hover to see other rain measurements)
** Current wind speed in m/s (hover to see current wind gust speed)